Regional Weather Roundup
Issued by NWS Green Bay, WI

Home | Current Version | Previous Version | Text Only | Print | Product List | Glossary On
Versions: 1 2 3 4 5 6 7 8 9 10 11 12 13 14 15 16 17 18 19 20 21 22 23 24 25 26 27 28 29 30 31 32 33 34 35 36 37 38 39 40 41 42 43 44 45 46 47 48 49 50
000
ASUS43 KGRB 210659
RWRGRB

NORTH-CENTRAL AND NORTHEAST WISCONSIN REGIONAL WEATHER ROUNDUP
NATIONAL WEATHER SERVICE GREEN BAY WI
100 AM CST SUN DEC 21 2014

WIZ005-009-010>012-018-019-210800-
NORTH CENTRAL WISCONSIN

CITY           SKY/WX    TMP DP  RH WIND       PRES   REMARKS
IRONWOOD       CLOUDY    30  27  86 S6        30.05F
MANITOWISH WTR NOT AVBL
ARBOR VITAE    NOT AVBL
EAGLE RIVER    NOT AVBL
LAND O LAKES   NOT AVBL
RHINELANDER    CLOUDY    26  24  92 S6        30.10F FOG
PHILLIPS       NOT AVBL
ANTIGO         NOT AVBL
TOMAHAWK       NOT AVBL
MERRILL        NOT AVBL
$$

WIZ013-073-210800-
NORTHEAST WISCONSIN

CITY           SKY/WX    TMP DP  RH WIND       PRES   REMARKS
IRON MOUNTAIN  CLOUDY    27  23  85 S6        30.14F
MARINETTE      CLOUDY    28  25  86 CALM      30.19F
$$

WIZ017-030-035>037-045-210800-
CENTRAL WISCONSIN

CITY           SKY/WX    TMP DP  RH WIND       PRES   REMARKS
MEDFORD        NOT AVBL
WAUSAU         CLOUDY    28  25  88 S6        30.12F
MOSINEE        NOT AVBL
MARSHFIELD     CLOUDY    29  26  89 S7        30.12F FOG
WISC RAPIDS    CLOUDY    29  25  85 S5        30.16F
STEVENS POINT  NOT AVBL
WAUPACA        NOT AVBL
SHAWANO        NOT AVBL
CLINTONVILLE   NOT AVBL
$$

WIZ038-039-048-051-210800-
FOX VALLEY

CITY           SKY/WX    TMP DP  RH WIND       PRES   REMARKS
NWS GREEN BAY  CLOUDY    30  27  88 S5        30.20S FOG
APPLETON       NOT AVBL
OSHKOSH        CLOUDY    30  26  85 S6        30.18F FOG
FOND DU LAC    CLOUDY    30  26  85 S7        30.19F
$$

WIZ022-050-052-210800-
EAST CENTRAL WISCONSIN

CITY           SKY/WX    TMP DP  RH WIND       PRES   REMARKS
STURGEON BAY   CLOUDY    28  25  86 CALM      30.21F
MANITOWOC      NOT AVBL
SHEBOYGAN      CLOUDY    30  26  85 S3        30.20F
$$

LMZ563-521-522-541>543-210800-
LAKESHORE

STATION/POSITION TIME  TEMP    WIND        PRES    VSBY  WAVE
                       AIR SEA DIR/SP/G                  HT/PER
                 (UTC) (F)     (DEG/KT/KT) (MB)    (MI)  (FT/S)
SHEBOYGAN LKSHOR 0600   31 34  200/  4/  5 1024.2F
KEWAUNEE LKSHORE 0600   29        CALM     1022.0F
ALGOMA MARINA    0600             CALM       N/A
NORTHPORT PIER   0600   30     200/  1/  2 1022.7F
SISTER BAY LKSHO 0600             CALM       N/A
CHAMBERS ISLAND  0600   28        CALM     1023.0S
MENOMINEE LKSHOR 0600   29     190/  3/  4 1023.2F
$$


USA.gov is the U.S. government's official web portal to all federal, state and local government web resources and services.